User: anonymous   Login
Location: Unspecified
(0.0000°N, 0.0000°E)
Time: 13:03:49
(UTC+02:00)
Language:

Early Ammonia Servicer - Orbit

View from above orbital plane
View from above orbital plane
View from above satellite
View from above satellite

Ground track
Ground track

The orbit data is extracted from the following two-line orbital elements,

1 31928U 98067BA  08308.15386490  .36305328  12898-4  14380-3 0  9999
2 31928 051.6106 325.7448 0002831 305.1068 055.1226 16.56949405 74566
Epoch (UTC): 03 November 2008 03:41:33
Eccentricity: 0.0002831
inclination: 51.6106°
perigee height: 119 km
apogee height: 123 km
right ascension of ascending node: 325.7448°
argument of perigee: 305.1068°
revolutions per day: 16.56949405
mean anomaly at epoch: 55.1226°
orbit number at epoch: 7456

The dashed part of the orbit path shows where the satellite is in the earth's shadow,  

DLR